Regional Weather Roundup
Issued by NWS

Home | Current Version | Previous Version | Text Only | Print | Product List | Glossary On
Versions: 1 2 3 4 5 6 7 8 9 10 11 12 13 14 15 16 17 18 19 20 21 22 23 24 25 26 27 28 29 30 31 32 33 34 35 36 37 38 39 40 41 42 43 44 45 46 47 48 49 50
123
ASUS45 KSLC 280310
RWRUT

UTAH REGIONAL WEATHER ROUNDUP
NATIONAL WEATHER SERVICE SALT LAKE CITY UT
900 PM MDT SAT MAY 27 2017

UTZ001>011-023>025-280400-

NORTHERN UTAH

CITY           SKY/WX    TMP DP  RH WIND       PRES   REMARKS
BRIGHAM CITY   CLEAR     67  32  27 NE7       30.21S
HILL AFB       CLEAR     64  35  34 NW3       30.22R
LOGAN          CLEAR     62  43  49 NW3       30.21S
OGDEN          CLEAR     62  36  37 N5        30.20R
SALT LAKE CITY PTCLDY    63  41  44 W8        30.20R
TOOELE VALLEY  CLEAR     59  37  44 SW3       30.22S
WENDOVER       NOT AVBL
HEBER CITY     CLEAR     52  37  58 SE3       30.23R
WEST JORDAN    CLEAR     60  43  53 W5        30.22S

$$

UTZ011>015-024>027-280400-

CENTRAL/NORTHEAST UTAH

CITY           SKY/WX    TMP DP  RH WIND       PRES   REMARKS
PROVO AIRPORT  CLEAR     62  42  47 NW12      30.21R
MOAB/CANYONLAN CLEAR     70  19  14 E13       30.11R
DELTA          CLEAR     61  25  25 NW7       30.19R
PRICE          CLEAR     62  29  28 NW9       30.20R
ROOSEVELT      MOCLDY    63  30  29 NE6       30.21F
VERNAL         CLEAR     60  23  24 N6        30.20R

$$

UTZ013>016-019>022-027-280400-

SOUTHERN UTAH

CITY           SKY/WX    TMP DP  RH WIND       PRES   REMARKS
BRYCE CANYON   CLEAR     53  26  35 N6        30.28R
CEDAR CITY     CLEAR     60  24  25 N7        30.19R
MILFORD        CLEAR     63  24  22 NE10      30.18R
ST GEORGE      CLEAR     80  23  12 NE18G28   29.99R
HANKSVILLE     CLEAR     70  19  14 NE5       30.11R
BLANDING       CLEAR     58  18  21 N8        30.23S

$$

REGIONAL REPORTS     COLORADO/ARIZONA

CITY           SKY/WX    TMP DP  RH WIND       PRES   REMARKS
CRAIG, CO      CLEAR     46  37  71 SE3       30.27R
GRAND JUNCTION CLEAR     63  26  24 NE13      30.17R
RIFLE, CO      CLEAR     57  29  34 E5        30.23R
MONTROSE, CO   CLEAR     57  28  33 NE5       30.22R
CORTEZ, CO     CLEAR     62  15  16 NW7       30.16R
COLORADO CITY    N/A     70  21  16 NW7       30.13S
PAGE, AZ       CLEAR     77  28  16 CALM      30.03R
GRAND CANYON   CLEAR     54  27  35 CALM      30.20R
KINGMAN, AZ    CLEAR     77  24  14 SW9       30.01R
FLAGSTAFF, AZ  PTCLDY    59  23  25 CALM      30.21R

$$

REGIONAL REPORTS    NEVADA/IDAHO/WYOMING

CITY           SKY/WX    TMP DP  RH WIND       PRES   REMARKS
LAS VEGAS, NV  PTCLDY    88  24  10 CALM      29.91S
ELY, NY        CLEAR     59  22  24 N10       30.22R
ELKO, NV       CLEAR     66  26  22 E7        30.19S
POCATELLO, ID  CLEAR     60  40  47 S5        30.23F
BURLEY, ID     CLEAR     62  39  42 S3        30.20S
FORT BRIDGER,    N/A     51  31  45 NW9       30.33S
EVANSTON, WY   PTCLDY    50  32  50 N9        30.32R
ROCK SPRINGS,  PTCLDY    52  24  33 NW5       30.27R
KEMMERER, WY     N/A     48  32  53 NW8       30.32R

$$




USA.gov is the U.S. government's official web portal to all federal, state and local government web resources and services.